Location: Camps Bay
(33.9517°S, 18.3844°E)
Time: 00:34:28
(UTC+00:00)

STARLINK-1030 - Pass Details

Date: 18 January 2020
Orbit: 548 x 551 km, 53.0° (Epoch: 28 February)

Event Time Altitude Azimuth Distance (km) Brightness Sun altitude
Rises 01:27:02 0° 222° (SW) 2,743 7.3 -24.7°
Reaches altitude 10° 01:29:19 10° 218° (SW) 1,843 6.4 -24.4°
Maximum altitude 01:33:27 59° 137° (SE) 642 4.1 -23.8°
Drops below altitude 10° 01:37:33 10° 57° (ENE) 1,827 6.3 -23.3°
Sets 01:39:48 0° 53° (NE) 2,716 7.2 -23.0°
